Weather History for Three Rivers, MI

Change the Weather History Date:

Monday, October 8, 2012

  Actual Average Record
Temperature  
Mean Temperature 43 °F -  
Max Temperature 55 °F 65 °F 87 °F (2007)
Min Temperature 31 °F 42 °F 25 °F (1952)
Degree Days  
Heating Degree Days 22    
Moisture  
Dew Point 30 °F    
Average Humidity 66    
Maximum Humidity 94    
Minimum Humidity 34    
Precipitation  
Precipitation 0.00 in - - ()
Sea Level Pressure  
Sea Level Pressure 30.14 in    
Wind  
Wind Speed 5 mph (SSW)    
Max Wind Speed 14 mph    
Max Gust Speed 18 mph    
Visibility 10 miles    
Events      
Averages and records for this station are not official NWS values.
T = Trace of Precipitation, MM = Missing Value Source: NWS Daily Summary

Daily Weather History Graph

Daily Weather History Graph

Search for Another Location

Airport:

Trip Planner

Search our weather history database for the weather conditions in past years. The results will help you decide how hot, cold, wet, or windy it might be!

Date:

Astronomy

Oct. 08, 2012 Rise Set
Actual Time 7:47 AM EDT 7:11 PM EDT
Civil Twilight 7:19 AM EDT 7:39 PM EDT
Nautical Twilight 6:47 AM EDT 8:11 PM EDT
Astronomical Twilight 6:14 AM EDT 8:43 PM EDT
Moon 12:20 AM EDT (10/8) 3:06 PM EDT (10/8)
Length of Visible Light 12h 19m
Length of Day
11h 23m
Waning Gibbous, 46% of the Moon is Illuminated
Oct 8
Waning Gibbous
Oct 15
New
Oct 21
First Quarter
Oct 29
Full
Nov 6
Last Quarter

Hourly Weather History & Observations

Time (EDT) Temp. Windchill Dew Point Humidity Pressure Visibility Wind Dir Wind Speed Gust Speed Precip Events Conditions
12:14 AM 37.4 °F - 33.6 °F 86% 30.15 in 10.0 mi Calm Calm - N/A   Clear
12:34 AM 36.5 °F 33.9 °F 33.3 °F 88% 30.15 in 10.0 mi SW 3.5 mph - N/A   Clear
12:54 AM 34.7 °F - 31.3 °F 87% 30.15 in 10.0 mi Calm Calm - N/A   Scattered Clouds
1:14 AM 35.4 °F - 32.5 °F 89% 30.15 in 10.0 mi Calm Calm - N/A   Overcast
1:34 AM 36.0 °F - 33.3 °F 90% 30.15 in 10.0 mi Calm Calm - N/A   Overcast
1:53 AM 35.6 °F 32.8 °F 32.9 °F 90% 30.16 in 10.0 mi SSW 3.5 mph - N/A   Overcast
2:14 AM 35.8 °F 31.9 °F 33.3 °F 91% 30.16 in 10.0 mi SSW 4.6 mph - N/A   Overcast
2:34 AM 35.8 °F 33.0 °F 33.1 °F 90% 30.16 in 10.0 mi SSW 3.5 mph - N/A   Overcast
2:53 AM 35.6 °F 32.8 °F 32.9 °F 90% 30.17 in 10.0 mi SSW 3.5 mph - N/A   Overcast
3:14 AM 35.8 °F 30.9 °F 33.3 °F 91% 30.17 in 10.0 mi SSW 5.8 mph - N/A   Overcast
3:34 AM 36.0 °F 32.1 °F 33.4 °F 91% 30.16 in 10.0 mi SW 4.6 mph - N/A   Overcast
3:53 AM 36.5 °F 33.9 °F 33.8 °F 90% 30.16 in 10.0 mi SSW 3.5 mph - N/A   Overcast
4:14 AM 35.4 °F 32.6 °F 32.7 °F 90% 30.16 in 10.0 mi SSW 3.5 mph - N/A   Mostly Cloudy
4:34 AM 34.2 °F 30.0 °F 32.0 °F 92% 30.15 in 10.0 mi SSW 4.6 mph - N/A   Scattered Clouds
4:54 AM 33.8 °F 30.8 °F 32.0 °F 93% 30.16 in 10.0 mi SSW 3.5 mph - N/A   Clear
5:14 AM 33.3 °F 28.9 °F 31.5 °F 93% 30.16 in 10.0 mi South 4.6 mph - N/A   Clear
5:33 AM 32.9 °F 28.5 °F 31.1 °F 93% 30.16 in 10.0 mi SSW 4.6 mph - N/A   Clear
5:54 AM 32.7 °F 29.6 °F 31.1 °F 94% 30.16 in 10.0 mi SSW 3.5 mph - N/A   Clear
6:14 AM 32.2 °F 27.7 °F 30.4 °F 93% 30.16 in 10.0 mi SSW 4.6 mph - N/A   Clear
6:34 AM 32.0 °F 27.5 °F 30.2 °F 93% 30.17 in 10.0 mi SSW 4.6 mph - N/A   Clear
6:54 AM 32.0 °F 27.5 °F 29.8 °F 92% 30.17 in 10.0 mi SSW 4.6 mph - N/A   Clear
7:14 AM 32.0 °F 28.7 °F 29.8 °F 92% 30.18 in 10.0 mi SW 3.5 mph - N/A   Clear
7:34 AM 31.8 °F 28.5 °F 29.3 °F 90% 30.18 in 10.0 mi SSW 3.5 mph - N/A   Clear
7:54 AM 32.0 °F - 29.3 °F 90% 30.19 in 10.0 mi Calm Calm - N/A   Clear
8:13 AM 32.0 °F - 29.3 °F 90% 30.19 in 10.0 mi Calm Calm - N/A   Clear
8:34 AM 32.7 °F 29.6 °F 29.8 °F 89% 30.19 in 10.0 mi SSW 3.5 mph - N/A   Clear
8:54 AM 34.3 °F 30.2 °F 31.1 °F 88% 30.20 in 10.0 mi SSW 4.6 mph - N/A   Clear
9:13 AM 36.0 °F 31.1 °F 31.6 °F 84% 30.21 in 10.0 mi SSW 5.8 mph - N/A   Clear
9:34 AM 38.3 °F 33.2 °F 32.0 °F 78% 30.20 in 10.0 mi SSW 6.9 mph - N/A   Clear
9:53 AM 40.5 °F 35.1 °F 32.0 °F 72% 30.20 in 10.0 mi SSW 8.1 mph - N/A   Clear
10:14 AM 42.8 °F 38.0 °F 32.0 °F 66% 30.20 in 10.0 mi SSW 8.1 mph - N/A   Clear
10:34 AM 44.1 °F 39.5 °F 31.8 °F 62% 30.20 in 10.0 mi SSW 8.1 mph - N/A   Clear
10:53 AM 45.7 °F 41.5 °F 32.0 °F 59% 30.20 in 10.0 mi SSW 8.1 mph - N/A   Clear
11:14 AM 47.8 °F - 31.8 °F 54% 30.20 in 10.0 mi SSW 9.2 mph - N/A   Clear
11:34 AM 48.9 °F - 30.2 °F 48% 30.20 in 10.0 mi SSW 12.7 mph - N/A   Clear
11:54 AM 49.8 °F - 28.9 °F 45% 30.20 in 10.0 mi SSW 10.4 mph 16.1 mph N/A   Clear
12:14 PM 50.4 °F - 28.4 °F 43% 30.19 in 10.0 mi SW 9.2 mph 17.3 mph N/A   Clear
12:34 PM 51.3 °F - 28.9 °F 42% 30.19 in 10.0 mi WSW 11.5 mph - N/A   Clear
12:54 PM 51.8 °F - 27.7 °F 39% 30.19 in 10.0 mi South 11.5 mph 18.4 mph N/A   Clear
1:14 PM 52.3 °F - 28.6 °F 40% 30.18 in 10.0 mi South 6.9 mph 17.3 mph N/A   Clear
1:33 PM 52.7 °F - 28.0 °F 39% 30.17 in 10.0 mi SW 9.2 mph 17.3 mph N/A   Clear
1:54 PM 53.2 °F - 28.9 °F 39% 30.16 in 10.0 mi SSW 13.8 mph - N/A   Clear
2:14 PM 53.4 °F - 27.7 °F 37% 30.15 in 10.0 mi WSW 9.2 mph - N/A   Clear
2:33 PM 53.8 °F - 27.9 °F 37% 30.13 in 10.0 mi South 11.5 mph 17.3 mph N/A   Clear
2:54 PM 54.1 °F - 27.9 °F 36% 30.12 in 10.0 mi SSW 9.2 mph - N/A   Clear
3:14 PM 54.5 °F - 28.2 °F 36% 30.12 in 10.0 mi South 9.2 mph - N/A   Clear
3:33 PM 54.9 °F - 27.5 °F 35% 30.12 in 10.0 mi SSW 10.4 mph 16.1 mph N/A   Clear
3:54 PM 54.3 °F - 27.1 °F 35% 30.11 in 10.0 mi SSW 8.1 mph - N/A   Clear
4:14 PM 54.5 °F - 27.3 °F 35% 30.10 in 10.0 mi SSW 5.8 mph - N/A   Clear
4:34 PM 55.0 °F - 27.0 °F 34% 30.10 in 10.0 mi SW 12.7 mph 17.3 mph N/A   Clear
4:54 PM 54.9 °F - 27.1 °F 34% 30.10 in 10.0 mi South 10.4 mph - N/A   Clear
5:14 PM 54.5 °F - 26.8 °F 34% 30.09 in 10.0 mi SW 10.4 mph - N/A   Clear
5:34 PM 54.3 °F - 26.8 °F 35% 30.09 in 10.0 mi South 11.5 mph - N/A   Clear
5:54 PM 53.8 °F - 27.0 °F 36% 30.08 in 10.0 mi South 10.4 mph 18.4 mph N/A   Clear
6:14 PM 53.2 °F - 26.8 °F 36% 30.08 in 10.0 mi South 8.1 mph - N/A   Clear
6:34 PM 52.3 °F - 26.8 °F 37% 30.08 in 10.0 mi South 9.2 mph - N/A   Clear
6:54 PM 50.2 °F - 27.7 °F 42% 30.08 in 10.0 mi South 6.9 mph - N/A   Clear
7:13 PM 47.7 °F - 29.3 °F 49% 30.08 in 10.0 mi South 5.8 mph - N/A   Clear
7:34 PM 45.9 °F 44.6 °F 29.1 °F 52% 30.08 in 10.0 mi South 3.5 mph - N/A   Clear
7:54 PM 45.0 °F 43.5 °F 29.1 °F 54% 30.08 in 10.0 mi South 3.5 mph - N/A   Clear
8:13 PM 43.2 °F 41.5 °F 29.3 °F 58% 30.08 in 10.0 mi South 3.5 mph - N/A   Clear
8:34 PM 42.1 °F 40.2 °F 29.5 °F 61% 30.09 in 10.0 mi South 3.5 mph - N/A   Clear
8:54 PM 42.1 °F - 30.2 °F 63% 30.09 in 10.0 mi Calm Calm - N/A   Clear
9:14 PM 40.6 °F 38.6 °F 29.7 °F 65% 30.09 in 10.0 mi South 3.5 mph - N/A   Clear
9:34 PM 40.5 °F 37.3 °F 29.3 °F 64% 30.09 in 10.0 mi South 4.6 mph - N/A   Clear
9:54 PM 39.6 °F 37.4 °F 29.8 °F 68% 30.10 in 10.0 mi South 3.5 mph - N/A   Clear
10:14 PM 39.4 °F 36.1 °F 29.3 °F 67% 30.10 in 10.0 mi South 4.6 mph - N/A   Clear
10:34 PM 39.2 °F 37.0 °F 29.5 °F 68% 30.10 in 10.0 mi South 3.5 mph - N/A   Clear
10:54 PM 38.7 °F - 30.0 °F 71% 30.10 in 10.0 mi Calm Calm - N/A   Clear
11:14 PM 39.2 °F 37.0 °F 29.3 °F 68% 30.10 in 10.0 mi South 3.5 mph - N/A   Clear
11:54 PM 38.3 °F 34.8 °F 30.0 °F 72% 30.10 in 10.0 mi South 4.6 mph - N/A   Clear